N8YZF Weather Reports


Display with metric or nautical units.
time (UTC)temp
F
wind
direction
speed
MPH
gust
MPH
rain 1hr
in
rain 24hr
in
rain mn
in
humidity
%
barometer
mb
20260506081921 29 303 0.0 0.0 0.00 0.00 0.00 87 1005.6
20260506081346 29 303 0.0 0.0 0.00 0.00 0.00 87 1005.6
20260506080848 29 303 0.0 0.0 0.00 0.00 0.00 86 1005.6
20260506080344 29 303 0.0 0.0 0.00 0.00 0.00 86 1005.6
20260506073251 30 303 0.0 0.0 0.00 0.00 0.00 86 1005.2
20260506072752 30 303 0.0 0.0 0.00 0.00 0.00 86 1005.0
20260506072241 30 303 0.0 0.0 0.00 0.00 0.00 85 1005.0
20260506071728 31 303 0.0 0.0 0.00 0.00 0.00 85 1005.1
20260506071219 31 303 0.0 0.0 0.00 0.00 0.00 86 1005.1
20260506071209 31 303 0.0 0.0 0.00 0.00 0.00 86 1005.1
20260506070109 31 303 0.0 0.0 0.00 0.00 0.00 85 1005.1
20260506062443 32 303 0.0 0.0 0.00 0.00 0.00 83 1005.6
20260506062145 33 303 0.0 0.0 0.00 0.00 0.00 82 1005.6
20260506061351 33 303 0.0 0.0 0.00 0.00 0.00 83 1005.7
20260506060847 33 303 0.0 0.0 0.00 0.00 0.00 82 1005.7
20260506060351 33 303 0.0 0.0 0.00 0.00 0.00 82 1005.7
20260506051043 35 302 0.0 0.0 0.00 0.00 0.00 78 1005.2
20260506050504 35 302 0.0 0.0 0.00 0.00 0.00 78 1005.2
20260506044940 36 302 0.0 0.0 0.00 0.00 0.00 75 1005.4
20260506044647 36 302 0.0 0.0 0.00 0.00 0.00 75 1005.4
20260506043853 37 302 0.0 0.0 0.00 0.00 0.00 75 1005.4
20260506043344 37 302 0.0 0.0 0.00 0.00 0.00 72 1005.4
20260506042841 37 302 0.0 0.0 0.00 0.00 0.00 71 1005.4
20260506042251 37 302 0.0 0.0 0.00 0.00 0.00 72 1005.4
20260506041702 38 302 0.0 0.0 0.00 0.00 0.00 71 1005.4
20260506041156 38 302 0.0 0.0 0.00 0.00 0.00 71 1005.6
20260506040659 38 302 0.0 0.0 0.00 0.00 0.00 69 1005.6
20260506040147 39 302 0.0 0.0 0.00 0.00 0.00 68 1005.6
20260506035646 39 302 0.0 0.0 0.00 0.00 0.00 67 1005.7
20260506035143 39 302 0.0 0.0 0.00 0.00 0.00 67 1005.7
20260506034642 40 302 0.0 0.0 0.00 0.00 0.00 65 1005.8
20260506034141 40 302 0.0 0.0 0.00 0.00 0.00 63 1005.7
20260506033640 40 302 0.0 0.0 0.00 0.00 0.00 63 1005.7
20260506033105 40 302 0.0 0.0 0.00 0.00 0.00 63 1005.7
20260506032558 40 302 0.0 0.0 0.00 0.00 0.00 63 1005.6
20260506032059 41 302 0.0 0.0 0.00 0.00 0.00 62 1005.6
20260506031825 41 302 0.0 0.0 0.00 0.00 0.00 62 1005.6
20260506031043 41 302 0.0 0.0 0.00 0.01 0.00 61 1005.6
20260506030524 41 302 0.0 1.0 0.00 0.01 0.00 61 1005.6
20260506030304 42 302 0.0 1.0 0.00 0.01 0.00 61 1005.6
20260506025501 42 302 0.0 1.0 0.00 0.01 0.00 60 1005.4
20260506025245 42 302 0.0 0.0 0.00 0.01 0.00 60 1005.5
20260506024741 43 302 0.0 0.0 0.00 0.01 0.00 60 1005.2
20260506023949 43 302 0.0 0.0 0.00 0.01 0.00 59 1005.2
20260506023408 43 302 0.0 0.0 0.00 0.01 0.00 59 1005.2
20260506022902 43 302 0.0 1.0 0.00 0.01 0.00 58 1005.1
20260506022402 44 302 0.0 1.0 0.00 0.01 0.00 57 1005.1
20260506021906 44 302 0.0 2.0 0.00 0.01 0.00 56 1005.2
20260506021403 44 302 0.0 2.0 0.00 0.01 0.00 55 1004.9
20260506020859 44 308 0.0 2.0 0.00 0.01 0.00 54 1004.9
20260506020340 44 300 0.0 0.0 0.00 0.01 0.00 54 1004.9
20260506015838 44 300 0.0 1.0 0.00 0.01 0.00 53 1004.7
20260506015359 45 300 0.0 2.0 0.00 0.01 0.00 52 1004.8
20260506015118 45 300 0.0 2.0 0.00 0.01 0.00 51 1004.8
20260506013741 46 300 0.0 1.0 0.00 0.01 0.00 50 1004.6
20260506013241 46 300 0.0 2.0 0.00 0.01 0.00 48 1004.6
20260506012715 46 300 0.0 2.0 0.00 0.01 0.00 48 1004.4
20260506012208 47 286 1.0 4.0 0.00 0.01 0.00 47 1004.4
20260506011659 47 286 1.0 4.0 0.00 0.01 0.00 46 1004.4
20260506011149 47 271 0.0 4.0 0.00 0.01 0.00 46 1004.2
20260506010652 47 296 0.0 4.0 0.00 0.01 0.00 45 1004.3
20260506010135 48 319 0.0 1.0 0.00 0.01 0.00 46 1004.3
20260506005840 48 319 0.0 4.0 0.00 0.01 0.00 45 1004.3
20260506005049 48 292 1.0 6.0 0.00 0.01 0.00 44 1004.3
20260506004547 49 315 1.0 6.0 0.00 0.01 0.00 43 1004.3
20260506004048 49 269 1.0 6.0 0.00 0.01 0.00 43 1004.5
20260506003548 49 286 1.0 8.0 0.00 0.01 0.00 43 1004.5
20260506003031 49 315 2.0 8.0 0.00 0.01 0.00 42 1004.5
20260506002509 50 0 2.0 6.0 0.00 0.01 0.00 42 1004.4
20260506002004 50 283 2.0 6.0 0.00 0.01 0.00 41 1004.5
20260506001804 51 270 2.0 5.0 0.00 0.01 0.00 42 1004.5
20260506001005 51 310 3.0 6.0 0.00 0.01 0.00 41 1004.2
20260506000759 51 300 3.0 7.0 0.00 0.01 0.00 41 1004.2
20260506000003 52 281 4.0 12.0 0.00 0.01 0.00 39 1004.2
20260505235502 52 273 4.0 12.0 0.00 0.01 0.00 39 1004.2
20260505234944 52 284 4.0 10.0 0.00 0.01 0.00 39 1004.2
20260505234443 52 292 3.0 11.0 0.00 0.01 0.00 40 1004.0
20260505233934 52 284 3.0 11.0 0.00 0.01 0.00 39 1004.0
20260505233432 52 217 3.0 8.0 0.00 0.01 0.00 39 1004.0
20260505232912 53 333 4.0 14.0 0.00 0.01 0.00 40 1003.9
20260505232716 53 269 4.0 14.0 0.00 0.01 0.00 38 1004.0
20260505231912 53 355 2.0 5.0 0.00 0.01 0.00 39 1004.0
20260505231411 53 331 3.0 11.0 0.00 0.01 0.00 40 1004.1
20260505230901 53 298 4.0 12.0 0.00 0.01 0.00 40 1004.1
20260505230525 54 348 2.0 6.0 0.00 0.01 0.00 42 1004.1
20260505230457 54 259 3.0 12.0 0.00 0.01 0.00 40 1004.1
20260505225358 54 333 3.0 8.0 0.00 0.01 0.00 41 1004.1
20260505224859 53 255 3.0 8.0 0.00 0.01 0.00 40 1004.1
20260505224356 53 344 3.0 11.0 0.00 0.01 0.00 40 1004.0
20260505223857 53 306 4.0 11.0 0.00 0.01 0.00 42 1004.0
20260505223356 53 267 3.0 8.0 0.00 0.01 0.00 43 1004.0
20260505222855 53 271 2.0 8.0 0.00 0.01 0.00 41 1004.0
20260505222355 53 325 2.0 6.0 0.00 0.01 0.00 43 1004.1
20260505222157 53 298 3.0 11.0 0.00 0.01 0.00 42 1004.1
20260505221354 53 317 3.0 11.0 0.00 0.01 0.00 42 1004.0
20260505220839 53 259 2.0 11.0 0.00 0.01 0.00 40 1004.0
20260505220337 54 339 3.0 7.0 0.00 0.01 0.00 42 1004.0
20260505215835 54 275 3.0 7.0 0.00 0.01 0.00 40 1004.0
20260505215335 54 259 3.0 7.0 0.00 0.01 0.00 41 1004.1
20260505214837 55 41 4.0 15.0 0.00 0.01 0.00 41 1004.1
20260505214337 55 281 4.0 15.0 0.00 0.01 0.00 41 1004.0
20260505213813 55 355 4.0 14.0 0.00 0.01 0.00 43 1004.0
20260505213309 55 249 4.0 14.0 0.00 0.01 0.00 40 1004.0
20260505212811 55 0 4.0 14.0 0.00 0.01 0.00 39 1004.1
20260505212309 54 24 6.0 14.0 0.00 0.01 0.00 42 1004.1
20260505211807 54 252 6.0 14.0 0.00 0.01 0.00 38 1004.1
20260505211620 54 317 5.0 12.0 0.00 0.01 0.00 38 1004.0
20260505211114 55 269 4.0 12.0 0.00 0.01 0.00 40 1004.0
20260505210308 54 215 6.0 14.0 0.00 0.01 0.00 40 1004.0
20260505205806 55 313 6.0 14.0 0.00 0.01 0.00 39 1003.9
20260505205306 55 270 4.0 10.0 0.00 0.01 0.00 40 1003.9
20260505204807 56 298 3.0 7.0 0.00 0.01 0.00 40 1004.0
20260505204609 56 294 3.0 9.0 0.00 0.01 0.00 40 1004.1
20260505203802 55 355 5.0 14.0 0.00 0.01 0.00 40 1004.1
20260505203301 56 264 5.0 14.0 0.00 0.01 0.00 40 1004.1
20260505202800 56 282 5.0 11.0 0.00 0.01 0.00 39 1004.0
20260505202300 56 269 4.0 11.0 0.00 0.01 0.00 38 1004.0
20260505202114 55 272 4.0 12.0 0.00 0.01 0.00 41 1003.9
20260505201301 55 320 5.0 12.0 0.00 0.01 0.00 40 1003.6
20260505200759 55 257 5.0 11.0 0.00 0.01 0.00 37 1003.6
20260505200259 55 233 4.0 10.0 0.00 0.01 0.00 38 1003.7
20260505195918 55 295 4.0 13.0 0.00 0.01 0.00 37 1003.8
20260505195847 56 262 4.0 13.0 0.00 0.01 0.00 37 1003.8
20260505194916 55 292 4.0 11.0 0.00 0.01 0.00 37 1003.6
20260505194849 55 320 5.0 11.0 0.00 0.01 0.00 39 1003.7
20260505193917 56 333 4.0 13.0 0.00 0.01 0.00 37 1003.6
20260505193844 56 329 4.0 13.0 0.00 0.01 0.00 36 1003.6
20260505193105 56 282 4.0 11.0 0.00 0.01 0.00 40 1003.5
20260505192254 55 267 5.0 11.0 0.00 0.01 0.00 37 1003.5
20260505191753 55 273 5.0 11.0 0.00 0.01 0.00 34 1003.5
20260505191253 55 247 4.0 11.0 0.00 0.01 0.00 36 1003.2
20260505190754 55 297 4.0 9.0 0.00 0.01 0.00 37 1003.2
20260505190252 55 292 5.0 15.0 0.00 0.01 0.00 36 1003.1
20260505185752 55 344 5.0 15.0 0.00 0.01 0.00 34 1003.5
20260505185249 55 276 6.0 13.0 0.00 0.01 0.00 37 1003.4
20260505184750 55 234 5.0 13.0 0.00 0.01 0.00 34 1003.5
20260505184248 56 227 4.0 10.0 0.00 0.01 0.00 35 1003.5
20260505183747 56 278 5.0 10.0 0.00 0.01 0.00 37 1003.5
20260505183248 56 269 5.0 15.0 0.00 0.01 0.00 36 1003.5
20260505182752 56 266 5.0 15.0 0.00 0.01 0.00 36 1003.1
20260505182248 56 226 4.0 13.0 0.00 0.01 0.00 34 1003.1
20260505181732 56 302 3.0 6.0 0.00 0.01 0.00 38 1003.1
20260505181226 55 323 5.0 14.0 0.00 0.01 0.00 37 1002.7
20260505180713 55 218 6.0 14.0 0.00 0.01 0.00 36 1002.7
20260505180215 55 273 5.0 12.0 0.00 0.01 0.00 37 1002.7
20260505175713 55 290 6.0 13.0 0.00 0.01 0.00 36 1002.4
20260505175211 55 355 5.0 13.0 0.00 0.01 0.00 34 1002.4
20260505174711 56 276 3.0 11.0 0.00 0.01 0.00 37 1002.4
20260505174211 55 338 3.0 11.0 0.00 0.01 0.00 37 1002.8
20260505173714 55 284 4.0 12.0 0.00 0.01 0.00 36 1002.8
20260505173212 55 337 4.0 12.0 0.00 0.01 0.00 38 1002.8
20260505172712 55 309 4.0 13.0 0.00 0.01 0.00 37 1002.7
20260505172517 54 293 5.0 13.0 0.00 0.01 0.00 43 1002.6
20260505171710 54 272 5.0 13.0 0.00 0.01 0.00 39 1002.6
20260505171209 54 258 5.0 11.0 0.00 0.01 0.00 38 1002.6
20260505170710 54 238 5.0 8.0 0.00 0.01 0.00 38 1002.6
20260505170205 54 230 4.0 13.0 0.00 0.01 0.00 39 1002.6
20260505165704 55 338 3.0 13.0 0.00 0.01 0.00 38 1002.7
20260505165204 54 256 3.0 12.0 0.00 0.01 0.00 37 1002.7
20260505164702 54 331 3.0 9.0 0.00 0.01 0.00 36 1002.7
20260505164202 54 355 3.0 8.0 0.00 0.01 0.00 40 1002.7
20260505163703 54 287 3.0 8.0 0.00 0.01 0.00 39 1002.7
20260505163206 54 321 4.0 12.0 0.00 0.01 0.00 37 1002.7
20260505162714 53 277 5.0 13.0 0.00 0.01 0.00 40 1002.6
20260505162201 53 244 5.0 13.0 0.00 0.01 0.00 40 1002.7
20260505161714 54 289 4.0 11.0 0.00 0.01 0.00 41 1002.7
20260505161204 53 349 4.0 14.0 0.00 0.01 0.00 41 1002.5
20260505161003 54 322 3.0 14.0 0.00 0.01 0.00 37 1002.6
20260505160158 53 284 3.0 8.0 0.00 0.01 0.00 40 1002.6
20260505152647 52 265 5.0 16.0 0.00 0.01 0.00 43 1003.0
20260505152131 52 286 5.0 12.0 0.00 0.01 0.00 47 1002.9
20260505151617 52 267 4.0 14.0 0.00 0.01 0.00 44 1002.9
20260505151129 52 284 4.0 14.0 0.00 0.01 0.00 47 1003.0
20260505150611 51 285 5.0 13.0 0.00 0.01 0.00 45 1003.0
20260505150113 51 277 5.0 12.0 0.00 0.01 0.00 46 1003.0
20260505140603 49 272 5.0 13.0 0.00 0.01 0.00 54 1002.2
20260505130109 48 343 3.0 11.0 0.00 0.01 0.00 60 1001.1
20260505124550 48 272 1.0 5.0 0.00 0.01 0.00 66 1000.9
20260505124037 48 270 2.0 6.0 0.00 0.01 0.00 72 1000.7
20260505123553 48 251 2.0 8.0 0.00 0.01 0.00 72 1000.6
20260505123032 47 265 1.0 8.0 0.00 0.01 0.00 75 1000.6
20260505122534 47 306 0.0 2.0 0.00 0.01 0.00 79 1000.6
20260505122045 46 304 0.0 2.0 0.00 0.01 0.00 79 1000.5
20260505121502 45 33 0.0 0.0 0.00 0.01 0.00 82 1000.5
20260505121005 44 34 0.0 0.0 0.00 0.01 0.00 84 1000.4
20260505120444 43 34 0.0 0.0 0.00 0.01 0.00 85 1000.3
20260505115849 42 34 0.0 0.0 0.00 0.01 0.00 85 1000.3
20260505115537 42 34 0.0 0.0 0.00 0.01 0.00 87 1000.2
20260505115026 41 34 0.0 0.0 0.00 0.01 0.00 88 1000.1
20260505114208 40 34 0.0 0.0 0.00 0.01 0.00 88 999.6
20260505113646 40 34 0.0 0.0 0.00 0.01 0.00 87 999.6
20260505113431 40 34 0.0 0.0 0.00 0.01 0.00 87 999.6
20260505112644 39 34 0.0 0.0 0.00 0.01 0.00 87 999.3
20260505112145 39 34 0.0 0.0 0.00 0.01 0.00 87 999.3
20260505111612 39 34 0.0 0.0 0.00 0.01 0.00 87 999.3
20260505111120 39 34 0.0 0.0 0.00 0.01 0.00 86 999.0
20260505111107 39 34 0.0 0.0 0.00 0.01 0.00 86 999.0
20260505101917 40 34 0.0 0.0 0.00 0.01 0.00 81 998.5
20260505101402 40 34 0.0 0.0 0.00 0.01 0.00 81 998.4
20260505100856 40 34 0.0 0.0 0.00 0.01 0.00 80 998.5
20260505100355 40 34 0.0 0.0 0.00 0.01 0.00 80 998.5
20260505095845 41 34 0.0 0.0 0.00 0.01 0.00 79 998.1
20260505095344 41 34 0.0 0.0 0.00 0.01 0.00 79 998.1
20260505094758 42 34 0.0 0.0 0.00 0.01 0.00 78 998.2
20260505094243 42 34 0.0 0.0 0.00 0.01 0.00 77 998.0
20260505093745 42 34 0.0 0.0 0.00 0.01 0.00 77 998.0
20260505093501 43 34 0.0 0.0 0.00 0.01 0.00 76 998.1
20260505092709 43 34 0.0 0.0 0.00 0.01 0.00 76 997.6
20260505092154 43 34 0.0 0.0 0.00 0.01 0.00 75 997.6
20260505091655 44 34 0.0 0.0 0.00 0.01 0.00 75 997.7
20260505091140 44 34 0.0 0.0 0.00 0.01 0.00 74 997.7
20260505090633 45 34 0.0 2.0 0.00 0.01 0.00 74 997.7
20260505090056 45 34 0.0 3.0 0.00 0.01 0.00 73 997.8
20260505085552 45 34 1.0 5.0 0.00 0.01 0.00 72 997.7
20260505085040 46 32 0.0 5.0 0.00 0.01 0.00 72 997.7
20260505084743 46 85 0.0 0.0 0.00 0.01 0.00 73 997.2
20260505084233 47 56 0.0 0.0 0.00 0.01 0.00 72 997.3
20260505083449 47 57 0.0 3.0 0.00 0.01 0.00 72 997.3
20260505082904 47 57 0.0 3.0 0.00 0.01 0.00 73 997.0